Time,TemperatureF,DewpointF,PressureIn,WindDirection,WindDirectionDegrees,WindSpeedMPH,WindSpeedGustMPH,Humidity,HourlyPrecipIn,Conditions,Clouds,dailyrainin,SolarRadiationWatts/m^2,SoftwareType,DateUTC
2014-11-24 00:00:00,34.0,28.2,29.34,West,279,4.9,7.0,79,0.00,,,0.00,0.0,meteobridge,2014-11-24 06:00:00,
2014-11-24 00:05:00,33.8,28.0,29.33,WNW,283,4.0,6.0,79,0.00,,,0.00,0.0,meteobridge,2014-11-24 06:05:00,
2014-11-24 00:10:00,33.8,28.0,29.33,WNW,284,4.9,7.0,79,0.00,,,0.00,0.0,meteobridge,2014-11-24 06:10:00,
2014-11-24 00:15:00,33.6,27.9,29.33,WNW,284,4.0,5.0,79,0.00,,,0.00,0.0,meteobridge,2014-11-24 06:15:00,
2014-11-24 00:20:00,33.6,27.9,29.33,WNW,284,4.0,7.0,79,0.00,,,0.00,0.0,meteobridge,2014-11-24 06:20:00,
2014-11-24 00:25:00,33.6,27.9,29.32,WNW,284,4.9,5.0,79,0.00,,,0.00,0.0,meteobridge,2014-11-24 06:25:00,
2014-11-24 00:30:00,33.6,27.9,29.32,WNW,292,4.9,5.0,79,0.00,,,0.00,0.0,meteobridge,2014-11-24 06:30:00,
2014-11-24 00:35:00,33.4,27.7,29.32,WNW,287,4.0,6.0,79,0.00,,,0.00,0.0,meteobridge,2014-11-24 06:35:00,
2014-11-24 00:40:00,33.4,27.7,29.32,WNW,298,2.0,9.0,79,0.00,,,0.00,0.0,meteobridge,2014-11-24 06:40:00,
2014-11-24 00:45:00,33.4,27.7,29.32,WNW,299,6.0,6.0,79,0.00,,,0.00,0.0,meteobridge,2014-11-24 06:45:00,
2014-11-24 00:50:00,33.4,27.7,29.32,WNW,298,6.0,7.0,79,0.00,,,0.00,0.0,meteobridge,2014-11-24 06:50:00,
2014-11-24 00:55:00,33.3,27.5,29.32,WNW,299,4.0,5.0,79,0.00,,,0.00,0.0,meteobridge,2014-11-24 06:55:00,
2014-11-24 01:01:00,33.3,27.5,29.31,NW,314,4.0,5.0,79,0.00,,,0.00,0.0,meteobridge,2014-11-24 07:01:00,
2014-11-24 01:06:00,33.3,27.5,29.31,NW,306,4.0,6.0,79,0.00,,,0.00,0.0,meteobridge,2014-11-24 07:06:00,
2014-11-24 01:11:00,33.3,27.5,29.31,WNW,300,2.0,5.0,79,0.00,,,0.00,0.0,meteobridge,2014-11-24 07:11:00,
2014-11-24 01:16:00,33.1,27.3,29.31,WNW,294,6.9,7.0,79,0.00,,,0.00,0.0,meteobridge,2014-11-24 07:16:00,
2014-11-24 01:21:00,33.1,27.3,29.31,WNW,293,4.0,8.0,79,0.00,,,0.00,0.0,meteobridge,2014-11-24 07:21:00,
2014-11-24 01:26:00,32.9,27.1,29.31,WNW,300,4.0,8.0,79,0.00,,,0.00,0.0,meteobridge,2014-11-24 07:26:00,
2014-11-24 01:31:00,32.9,27.1,29.31,WNW,300,0.0,4.0,79,0.00,,,0.00,0.0,meteobridge,2014-11-24 07:31:00,
2014-11-24 01:37:00,32.9,27.1,29.31,WNW,302,4.0,6.0,79,0.01,,,0.01,0.0,meteobridge,2014-11-24 07:37:00,
2014-11-24 01:42:00,32.9,27.1,29.31,WNW,302,0.0,5.0,79,0.01,,,0.01,0.0,meteobridge,2014-11-24 07:42:00,
2014-11-24 01:47:00,32.9,27.1,29.31,WNW,302,4.9,7.0,79,0.01,,,0.01,0.0,meteobridge,2014-11-24 07:47:00,
2014-11-24 01:52:00,32.9,27.1,29.31,WNW,298,4.9,5.0,79,0.01,,,0.01,0.0,meteobridge,2014-11-24 07:52:00,
2014-11-24 01:57:00,32.9,27.1,29.31,WNW,300,2.0,5.0,79,0.01,,,0.01,0.0,meteobridge,2014-11-24 07:57:00,
2014-11-24 02:02:00,32.7,27.0,29.31,WNW,299,0.9,5.0,79,0.01,,,0.01,0.0,meteobridge,2014-11-24 08:02:00,
2014-11-24 02:08:00,32.7,27.0,29.31,WNW,298,4.0,4.0,79,0.01,,,0.01,0.0,meteobridge,2014-11-24 08:08:00,
2014-11-24 02:13:00,32.7,27.0,29.31,WNW,300,0.0,8.0,79,0.01,,,0.01,0.0,meteobridge,2014-11-24 08:13:00,
2014-11-24 02:18:00,32.7,27.0,29.31,WNW,300,4.9,6.0,79,0.01,,,0.01,0.0,meteobridge,2014-11-24 08:18:00,
2014-11-24 02:23:00,32.7,27.0,29.31,WNW,300,0.0,2.0,79,0.01,,,0.01,0.0,meteobridge,2014-11-24 08:23:00,
2014-11-24 02:28:00,32.7,27.0,29.31,NW,304,4.9,5.0,79,0.01,,,0.01,0.0,meteobridge,2014-11-24 08:28:00,
2014-11-24 02:34:00,32.7,27.0,29.30,WNW,286,4.0,5.0,79,0.00,,,0.01,0.0,meteobridge,2014-11-24 08:34:00,
2014-11-24 02:39:00,32.7,27.0,29.31,West,269,4.0,8.0,79,0.00,,,0.01,0.0,meteobridge,2014-11-24 08:39:00,
2014-11-24 02:44:00,32.5,26.8,29.31,West,271,2.0,10.0,79,0.00,,,0.01,0.0,meteobridge,2014-11-24 08:44:00,
2014-11-24 02:49:00,32.5,26.8,29.31,West,272,2.0,5.0,79,0.01,,,0.02,0.0,meteobridge,2014-11-24 08:49:00,
2014-11-24 02:54:00,32.5,26.8,29.31,West,265,0.9,8.0,79,0.01,,,0.02,0.0,meteobridge,2014-11-24 08:54:00,
2014-11-24 02:59:00,32.5,26.8,29.31,West,265,2.9,3.0,79,0.01,,,0.02,0.0,meteobridge,2014-11-24 08:59:00,
2014-11-24 03:04:00,32.5,26.8,29.30,WNW,301,4.9,8.0,79,0.01,,,0.02,0.0,meteobridge,2014-11-24 09:04:00,
2014-11-24 03:09:00,32.5,26.8,29.31,WNW,302,2.0,5.0,79,0.01,,,0.02,0.0,meteobridge,2014-11-24 09:09:00,
2014-11-24 03:14:00,32.5,26.8,29.31,WNW,303,4.0,6.0,79,0.01,,,0.02,0.0,meteobridge,2014-11-24 09:14:00,
2014-11-24 03:19:00,32.5,26.8,29.30,West,272,0.0,6.0,79,0.01,,,0.02,0.0,meteobridge,2014-11-24 09:19:00,
2014-11-24 03:24:00,32.5,26.8,29.31,WNW,300,4.9,5.0,79,0.01,,,0.02,0.0,meteobridge,2014-11-24 09:24:00,
2014-11-24 03:29:00,32.5,26.8,29.30,WNW,299,0.0,5.0,79,0.01,,,0.02,0.0,meteobridge,2014-11-24 09:29:00,
2014-11-24 03:34:00,32.5,26.8,29.30,WNW,300,2.0,7.0,79,0.01,,,0.02,0.0,meteobridge,2014-11-24 09:34:00,
2014-11-24 03:39:00,32.5,26.8,29.31,WNW,300,0.0,4.0,79,0.01,,,0.02,0.0,meteobridge,2014-11-24 09:39:00,
2014-11-24 03:44:00,32.5,26.8,29.31,WNW,300,2.0,5.0,79,0.00,,,0.02,0.0,meteobridge,2014-11-24 09:44:00,
2014-11-24 03:49:00,32.5,26.8,29.31,WNW,286,2.0,8.0,79,0.00,,,0.02,0.0,meteobridge,2014-11-24 09:49:00,
2014-11-24 03:54:00,32.5,26.8,29.30,WNW,286,4.0,5.0,79,0.00,,,0.02,0.0,meteobridge,2014-11-24 09:54:00,
2014-11-24 03:59:00,32.5,26.8,29.30,WNW,288,0.9,6.0,79,0.00,,,0.02,0.0,meteobridge,2014-11-24 09:59:00,
2014-11-24 04:04:00,32.5,26.8,29.30,WNW,289,2.0,7.0,79,0.00,,,0.02,0.0,meteobridge,2014-11-24 10:04:00,
2014-11-24 04:09:00,32.4,26.6,29.30,WNW,284,6.0,7.0,79,0.00,,,0.02,0.0,meteobridge,2014-11-24 10:09:00,
2014-11-24 04:14:00,32.4,26.6,29.30,WNW,290,4.9,6.0,79,0.00,,,0.02,0.0,meteobridge,2014-11-24 10:14:00,
2014-11-24 04:19:00,32.4,26.6,29.30,WNW,302,4.0,8.0,79,0.00,,,0.02,0.0,meteobridge,2014-11-24 10:19:00,
2014-11-24 04:25:00,32.4,26.6,29.30,West,271,4.9,10.0,79,0.00,,,0.02,0.0,meteobridge,2014-11-24 10:25:00,
2014-11-24 04:30:00,32.2,26.4,29.30,West,276,4.9,8.0,79,0.00,,,0.02,0.0,meteobridge,2014-11-24 10:30:00,
2014-11-24 04:35:00,32.2,26.4,29.30,West,279,0.9,7.0,79,0.00,,,0.02,0.0,meteobridge,2014-11-24 10:35:00,
2014-11-24 04:40:00,32.2,26.4,29.30,WNW,289,4.9,7.0,79,0.00,,,0.02,0.0,meteobridge,2014-11-24 10:40:00,
2014-11-24 04:45:00,31.8,26.1,29.30,NW,310,6.9,8.0,79,0.00,,,0.02,0.0,meteobridge,2014-11-24 10:45:00,
2014-11-24 04:50:00,31.3,25.5,29.30,WNW,289,2.0,9.0,79,0.00,,,0.02,0.0,meteobridge,2014-11-24 10:50:00,
2014-11-24 04:55:00,30.7,25.0,29.31,WNW,292,6.0,14.0,79,0.00,,,0.02,0.0,meteobridge,2014-11-24 10:55:00,
2014-11-24 05:00:00,30.4,24.6,29.31,NW,304,8.1,12.0,79,0.00,,,0.02,0.0,meteobridge,2014-11-24 11:00:00,
2014-11-24 05:05:00,30.0,24.3,29.30,NNW,334,8.9,10.0,79,0.00,,,0.02,0.0,meteobridge,2014-11-24 11:05:00,
2014-11-24 05:10:00,29.8,24.1,29.31,NW,308,4.0,9.0,79,0.00,,,0.02,0.0,meteobridge,2014-11-24 11:10:00,
2014-11-24 05:15:00,29.7,23.9,29.31,WNW,302,2.0,7.0,79,0.00,,,0.02,0.0,meteobridge,2014-11-24 11:15:00,
2014-11-24 05:20:00,29.7,24.3,29.32,NW,304,8.1,11.0,80,0.00,,,0.02,0.0,meteobridge,2014-11-24 11:20:00,
2014-11-24 05:25:00,29.5,23.7,29.32,WNW,302,8.1,8.1,79,0.00,,,0.02,0.0,meteobridge,2014-11-24 11:25:00,
2014-11-24 05:30:00,29.1,23.7,29.33,West,270,8.1,8.1,80,0.00,,,0.02,0.0,meteobridge,2014-11-24 11:30:00,
2014-11-24 05:35:00,28.9,23.2,29.33,NW,305,4.9,7.0,79,0.00,,,0.02,0.0,meteobridge,2014-11-24 11:35:00,
2014-11-24 05:40:00,28.8,23.4,29.33,WNW,288,6.0,11.0,80,0.00,,,0.02,0.0,meteobridge,2014-11-24 11:40:00,
2014-11-24 05:45:00,28.4,23.0,29.33,NW,310,8.1,11.0,80,0.00,,,0.02,0.0,meteobridge,2014-11-24 11:45:00,
2014-11-24 05:50:00,28.0,22.6,29.33,NW,309,4.0,8.0,80,0.00,,,0.02,0.0,meteobridge,2014-11-24 11:50:00,
2014-11-24 05:55:00,27.9,22.5,29.33,NW,314,4.0,6.0,80,0.00,,,0.02,0.0,meteobridge,2014-11-24 11:55:00,
2014-11-24 06:00:00,27.9,22.5,29.33,WNW,296,2.0,7.0,80,0.00,,,0.02,0.0,meteobridge,2014-11-24 12:00:00,
2014-11-24 06:06:00,27.7,22.3,29.33,WNW,293,2.0,8.0,80,0.00,,,0.02,0.0,meteobridge,2014-11-24 12:06:00,
2014-11-24 06:11:00,27.7,22.3,29.34,WNW,295,6.0,9.0,80,0.00,,,0.02,0.0,meteobridge,2014-11-24 12:11:00,
2014-11-24 06:16:00,27.3,21.9,29.34,WNW,292,6.0,8.0,80,0.00,,,0.02,0.0,meteobridge,2014-11-24 12:16:00,
2014-11-24 06:21:00,27.0,21.6,29.34,WNW,298,0.9,8.0,80,0.00,,,0.02,0.0,meteobridge,2014-11-24 12:21:00,
2014-11-24 06:26:00,27.0,21.6,29.34,WNW,295,0.9,4.0,80,0.00,,,0.02,0.0,meteobridge,2014-11-24 12:26:00,
2014-11-24 06:31:00,26.8,21.4,29.35,WNW,294,2.0,6.0,80,0.00,,,0.02,0.0,meteobridge,2014-11-24 12:31:00,
2014-11-24 06:37:00,26.6,21.2,29.35,NW,326,4.0,7.0,80,0.00,,,0.02,0.0,meteobridge,2014-11-24 12:37:00,
2014-11-24 06:42:00,26.4,21.0,29.35,WNW,291,4.0,8.0,80,0.00,,,0.02,0.0,meteobridge,2014-11-24 12:42:00,
2014-11-24 06:47:00,26.2,20.8,29.36,West,275,4.0,6.0,80,0.00,,,0.02,0.0,meteobridge,2014-11-24 12:47:00,
2014-11-24 06:52:00,26.2,20.8,29.36,West,281,4.9,7.0,80,0.00,,,0.02,0.0,meteobridge,2014-11-24 12:52:00,
2014-11-24 06:57:00,26.1,20.7,29.36,NW,314,2.0,6.0,80,0.00,,,0.02,0.0,meteobridge,2014-11-24 12:57:00,
2014-11-24 07:02:00,26.1,20.7,29.36,West,277,4.9,6.0,80,0.00,,,0.02,0.0,meteobridge,2014-11-24 13:02:00,
2014-11-24 07:07:00,25.9,20.5,29.37,West,271,8.1,13.0,80,0.00,,,0.02,0.0,meteobridge,2014-11-24 13:07:00,
2014-11-24 07:12:00,25.7,20.5,29.37,WNW,300,4.0,8.0,80,0.00,,,0.02,0.0,meteobridge,2014-11-24 13:12:00,
2014-11-24 07:17:00,25.5,20.3,29.37,WNW,288,4.9,6.0,80,0.00,,,0.02,0.0,meteobridge,2014-11-24 13:17:00,
2014-11-24 07:23:00,25.5,20.3,29.37,WNW,284,4.0,6.0,80,0.00,,,0.02,0.0,meteobridge,2014-11-24 13:23:00,
2014-11-24 07:28:00,25.5,20.3,29.38,West,263,4.0,5.0,80,0.00,,,0.02,0.0,meteobridge,2014-11-24 13:28:00,
2014-11-24 07:33:00,25.5,20.3,29.38,NW,304,8.1,9.0,80,0.00,,,0.02,0.0,meteobridge,2014-11-24 13:33:00,
2014-11-24 07:38:00,25.3,20.1,29.39,WNW,294,4.9,7.0,80,0.00,,,0.02,0.0,meteobridge,2014-11-24 13:38:00,
2014-11-24 07:43:00,25.3,20.1,29.38,WNW,291,6.0,7.0,80,0.00,,,0.02,0.0,meteobridge,2014-11-24 13:43:00,
2014-11-24 07:48:00,25.3,20.1,29.39,WNW,291,4.9,5.0,80,0.00,,,0.02,0.0,meteobridge,2014-11-24 13:48:00,
2014-11-24 07:53:00,25.2,19.9,29.39,NW,317,8.1,9.0,80,0.00,,,0.02,0.0,meteobridge,2014-11-24 13:53:00,
2014-11-24 07:58:00,25.0,19.8,29.39,West,279,6.9,8.0,80,0.00,,,0.02,5.0,meteobridge,2014-11-24 13:58:00,
2014-11-24 08:03:00,25.0,19.8,29.40,WNW,300,8.1,8.1,80,0.00,,,0.02,7.0,meteobridge,2014-11-24 14:03:00,